Time,TemperatureF,DewpointF,PressureIn,WindDirection,WindDirectionDegrees,WindSpeedMPH,WindSpeedGustMPH,Humidity,HourlyPrecipIn,Conditions,Clouds,dailyrainin,SolarRadiationWatts/m^2,SoftwareType,DateUTC
2013-12-05 00:00:00,9.9,-5.4,29.81,NNW,338,6.0,18.0,49,0.00,,,0.00,0,WeatherCatV1.23B14,2013-12-05 07:00:00,
2013-12-05 00:05:00,9.7,-6.0,29.81,NNW,338,6.0,16.0,48,0.00,,,0.00,0,WeatherCatV1.23B14,2013-12-05 07:05:00,
2013-12-05 00:10:00,9.7,-6.0,29.81,NNW,338,6.0,16.0,48,0.00,,,0.00,0,WeatherCatV1.23B14,2013-12-05 07:10:00,
2013-12-05 00:15:00,9.7,-6.0,29.81,NNW,338,6.0,16.0,48,0.00,,,0.00,0,WeatherCatV1.23B14,2013-12-05 07:15:00,
2013-12-05 00:20:00,10.7,-6.4,29.81,West,270,8.0,18.0,45,0.00,,,0.00,0,WeatherCatV1.23B14,2013-12-05 07:20:00,
2013-12-05 00:25:00,10.7,-6.4,29.81,West,270,8.0,18.0,45,0.00,,,0.00,0,WeatherCatV1.23B14,2013-12-05 07:25:00,
2013-12-05 00:30:00,10.7,-6.4,29.81,West,270,8.0,18.0,45,0.00,,,0.00,0,WeatherCatV1.23B14,2013-12-05 07:30:00,
2013-12-05 00:35:00,10.7,-6.4,29.80,WSW,248,10.0,24.0,45,0.00,,,0.00,0,WeatherCatV1.23B14,2013-12-05 07:35:00,
2013-12-05 00:40:00,10.7,-6.4,29.80,WSW,248,10.0,24.0,45,0.00,,,0.00,0,WeatherCatV1.23B14,2013-12-05 07:40:00,
2013-12-05 00:45:00,10.7,-6.4,29.80,WSW,248,10.0,24.0,45,0.00,,,0.00,0,WeatherCatV1.23B14,2013-12-05 07:45:00,
2013-12-05 00:50:00,10.4,-6.2,29.80,SW,225,9.0,26.0,46,0.00,,,0.00,0,WeatherCatV1.23B14,2013-12-05 07:50:00,
2013-12-05 00:55:00,10.4,-6.2,29.80,SW,225,9.0,26.0,46,0.00,,,0.00,0,WeatherCatV1.23B14,2013-12-05 07:55:00,
2013-12-05 01:00:00,10.4,-6.2,29.80,SW,225,9.0,26.0,46,0.00,,,0.00,0,WeatherCatV1.23B14,2013-12-05 08:00:00,
2013-12-05 01:05:00,8.8,-6.4,29.80,SW,225,7.0,19.0,49,0.00,,,0.00,0,WeatherCatV1.23B14,2013-12-05 08:05:00,
2013-12-05 01:10:00,8.8,-6.4,29.80,SW,225,7.0,19.0,49,0.00,,,0.00,0,WeatherCatV1.23B14,2013-12-05 08:10:00,
2013-12-05 01:15:00,8.8,-6.4,29.80,SW,225,7.0,19.0,49,0.00,,,0.00,0,WeatherCatV1.23B14,2013-12-05 08:15:00,
2013-12-05 01:20:00,-1.0,-8.4,29.81,SE,135,6.0,17.0,70,0.00,,,0.00,0,WeatherCatV1.23B14,2013-12-05 08:20:00,
2013-12-05 01:25:00,-1.0,-8.4,29.81,SE,135,6.0,17.0,70,0.00,,,0.00,0,WeatherCatV1.23B14,2013-12-05 08:25:00,
2013-12-05 01:30:00,-3.3,-9.2,29.81,SE,135,2.0,8.0,75,0.00,,,0.00,0,WeatherCatV1.23B14,2013-12-05 08:30:00,
2013-12-05 01:35:00,-3.3,-9.2,29.81,SE,135,2.0,8.0,75,0.00,,,0.00,0,WeatherCatV1.23B14,2013-12-05 08:35:00,
2013-12-05 01:40:00,-3.3,-9.2,29.81,SE,135,2.0,8.0,75,0.00,,,0.00,0,WeatherCatV1.23B14,2013-12-05 08:40:00,
2013-12-05 01:45:00,-4.8,-10.7,29.81,SE,135,1.0,3.0,75,0.00,,,0.00,0,WeatherCatV1.23B14,2013-12-05 08:45:00,
2013-12-05 01:50:00,-4.8,-10.7,29.81,SE,135,1.0,3.0,75,0.00,,,0.00,0,WeatherCatV1.23B14,2013-12-05 08:50:00,
2013-12-05 01:55:00,-4.8,-10.7,29.81,SE,135,1.0,3.0,75,0.00,,,0.00,0,WeatherCatV1.23B14,2013-12-05 08:55:00,
2013-12-05 02:00:00,-5.9,-11.7,29.81,NE,45,1.0,5.0,75,0.00,,,0.00,0,WeatherCatV1.23B14,2013-12-05 09:00:00,
2013-12-05 02:05:00,-5.9,-11.7,29.81,NE,45,1.0,5.0,75,0.00,,,0.00,0,WeatherCatV1.23B14,2013-12-05 09:05:00,
2013-12-05 02:10:00,-5.9,-11.7,29.81,NE,45,1.0,5.0,75,0.00,,,0.00,0,WeatherCatV1.23B14,2013-12-05 09:10:00,
2013-12-05 02:15:00,-5.9,-11.7,29.81,NE,45,1.0,5.0,75,0.00,,,0.00,0,WeatherCatV1.23B14,2013-12-05 09:15:00,
2013-12-05 02:20:00,-7.0,-13.1,29.81,NNE,22,0.0,2.0,74,0.00,,,0.00,0,WeatherCatV1.23B14,2013-12-05 09:20:00,
2013-12-05 02:25:00,-7.0,-13.1,29.81,NNE,22,0.0,2.0,74,0.00,,,0.00,0,WeatherCatV1.23B14,2013-12-05 09:25:00,
2013-12-05 02:30:00,-7.0,-13.1,29.81,NNE,22,0.0,2.0,74,0.00,,,0.00,0,WeatherCatV1.23B14,2013-12-05 09:30:00,
2013-12-05 02:35:00,-8.2,-14.2,29.80,NNE,22,1.0,4.0,74,0.00,,,0.00,0,WeatherCatV1.23B14,2013-12-05 09:35:00,
2013-12-05 02:40:00,-8.2,-14.2,29.80,NNE,22,1.0,4.0,74,0.00,,,0.00,0,WeatherCatV1.23B14,2013-12-05 09:40:00,
2013-12-05 02:45:00,-8.2,-14.2,29.80,NNE,22,1.0,4.0,74,0.00,,,0.00,0,WeatherCatV1.23B14,2013-12-05 09:45:00,
2013-12-05 02:50:00,-6.3,-11.6,29.80,NNE,22,1.0,5.0,77,0.00,,,0.00,0,WeatherCatV1.23B14,2013-12-05 09:50:00,
2013-12-05 02:55:00,-6.3,-11.6,29.80,NNE,22,1.0,5.0,77,0.00,,,0.00,0,WeatherCatV1.23B14,2013-12-05 09:55:00,
2013-12-05 03:00:00,-6.3,-11.6,29.80,NNE,22,1.0,5.0,77,0.00,,,0.00,0,WeatherCatV1.23B14,2013-12-05 10:00:00,
2013-12-05 03:05:00,-6.5,-11.8,29.80,NNE,22,2.0,8.0,77,0.00,,,0.00,0,WeatherCatV1.23B14,2013-12-05 10:05:00,
2013-12-05 03:10:00,-6.5,-11.8,29.80,NNE,22,2.0,8.0,77,0.00,,,0.00,0,WeatherCatV1.23B14,2013-12-05 10:10:00,
2013-12-05 03:15:00,-6.5,-11.8,29.80,NNE,22,2.0,8.0,77,0.00,,,0.00,0,WeatherCatV1.23B14,2013-12-05 10:15:00,
2013-12-05 03:20:00,-7.2,-12.5,29.80,SE,135,2.0,7.0,77,0.00,,,0.00,0,WeatherCatV1.23B14,2013-12-05 10:20:00,
2013-12-05 03:25:00,-7.2,-12.5,29.80,SE,135,2.0,7.0,77,0.00,,,0.00,0,WeatherCatV1.23B14,2013-12-05 10:25:00,
2013-12-05 03:30:00,-7.2,-12.5,29.80,SE,135,2.0,7.0,77,0.00,,,0.00,0,WeatherCatV1.23B14,2013-12-05 10:30:00,
2013-12-05 03:35:00,-8.2,-13.9,29.81,SE,135,1.0,5.0,75,0.00,,,0.00,0,WeatherCatV1.23B14,2013-12-05 10:35:00,
2013-12-05 03:40:00,-8.2,-13.9,29.81,SE,135,1.0,5.0,75,0.00,,,0.00,0,WeatherCatV1.23B14,2013-12-05 10:40:00,
2013-12-05 03:45:00,-8.2,-13.9,29.81,SE,135,1.0,5.0,75,0.00,,,0.00,0,WeatherCatV1.23B14,2013-12-05 10:45:00,
2013-12-05 03:50:00,-8.2,-13.4,29.82,SE,135,1.0,3.0,77,0.00,,,0.00,0,WeatherCatV1.23B14,2013-12-05 10:50:00,
2013-12-05 03:55:00,-8.2,-13.4,29.82,SE,135,1.0,3.0,77,0.00,,,0.00,0,WeatherCatV1.23B14,2013-12-05 10:55:00,
2013-12-05 04:07:00,-8.2,-13.4,29.82,SE,135,1.0,3.0,77,0.00,,,0.00,0,WeatherCatV1.23B14,2013-12-05 11:07:00,
2013-12-05 04:12:00,-10.5,-16.7,29.81,SE,136,1.0,1.0,73,0.00,,,0.00,0,WeatherCatV1.23B14,2013-12-05 11:12:00,
2013-12-05 04:17:00,-10.5,-16.5,29.81,NNE,28,0.0,2.0,74,0.00,,,0.00,0,WeatherCatV1.23B14,2013-12-05 11:17:00,
2013-12-05 04:22:00,-10.7,-16.9,29.81,NNE,28,1.0,3.0,73,0.00,,,0.00,0,WeatherCatV1.23B14,2013-12-05 11:22:00,
2013-12-05 04:27:00,-11.0,-17.5,29.81,NNE,28,0.0,0.0,72,0.00,,,0.00,0,WeatherCatV1.23B14,2013-12-05 11:27:00,
2013-12-05 04:32:00,-11.5,-18.2,29.80,NNE,28,0.0,1.0,71,0.00,,,0.00,0,WeatherCatV1.23B14,2013-12-05 11:32:00,
2013-12-05 04:37:00,-11.5,-17.7,29.80,NNE,28,0.0,1.0,73,0.00,,,0.00,0,WeatherCatV1.23B14,2013-12-05 11:37:00,
2013-12-05 04:42:00,-11.5,-17.7,29.80,NNE,28,0.0,0.0,73,0.00,,,0.00,0,WeatherCatV1.23B14,2013-12-05 11:42:00,
2013-12-05 04:47:00,-11.2,-17.1,29.81,NNE,28,0.0,0.0,74,0.00,,,0.00,0,WeatherCatV1.23B14,2013-12-05 11:47:00,
2013-12-05 04:52:00,-11.0,-17.2,29.81,NNE,28,0.0,3.0,73,0.00,,,0.00,0,WeatherCatV1.23B14,2013-12-05 11:52:00,
2013-12-05 04:57:00,-11.2,-17.4,29.81,NNE,28,1.0,2.0,73,0.00,,,0.00,0,WeatherCatV1.23B14,2013-12-05 11:57:00,
2013-12-05 05:02:00,-11.2,-17.4,29.81,NNE,28,0.0,0.0,73,0.00,,,0.00,0,WeatherCatV1.23B14,2013-12-05 12:02:00,
2013-12-05 05:07:00,-11.5,-18.0,29.81,NNE,28,0.0,0.0,72,0.00,,,0.00,0,WeatherCatV1.23B14,2013-12-05 12:07:00,
2013-12-05 05:12:00,-11.5,-17.7,29.81,NNE,28,0.0,0.0,73,0.00,,,0.00,0,WeatherCatV1.23B14,2013-12-05 12:12:00,
2013-12-05 05:17:00,-11.7,-17.9,29.81,NNE,28,0.0,0.0,73,0.00,,,0.00,0,WeatherCatV1.23B14,2013-12-05 12:17:00,
2013-12-05 05:22:00,-11.5,-17.4,29.81,NNE,28,0.0,0.0,74,0.00,,,0.00,0,WeatherCatV1.23B14,2013-12-05 12:22:00,
2013-12-05 05:27:00,-11.5,-17.7,29.81,NNE,28,0.0,0.0,73,0.00,,,0.00,0,WeatherCatV1.23B14,2013-12-05 12:27:00,
2013-12-05 05:32:00,-12.0,-18.7,29.81,NNE,28,0.0,3.0,71,0.00,,,0.00,0,WeatherCatV1.23B14,2013-12-05 12:32:00,
2013-12-05 05:37:00,-12.2,-18.6,29.81,NNE,28,0.0,0.0,72,0.00,,,0.00,0,WeatherCatV1.23B14,2013-12-05 12:37:00,
2013-12-05 05:42:00,-12.5,-19.2,29.81,NNE,28,0.0,0.0,71,0.00,,,0.00,0,WeatherCatV1.23B14,2013-12-05 12:42:00,
2013-12-05 05:47:00,-13.3,-20.2,29.82,NNE,28,0.0,1.0,70,0.00,,,0.00,0,WeatherCatV1.23B14,2013-12-05 12:47:00,
2013-12-05 05:52:00,-13.5,-20.4,29.82,NNE,28,2.0,2.0,70,0.00,,,0.00,0,WeatherCatV1.23B14,2013-12-05 12:52:00,
2013-12-05 05:57:00,-13.8,-20.5,29.82,NNE,28,2.0,3.0,71,0.00,,,0.00,0,WeatherCatV1.23B14,2013-12-05 12:57:00,
2013-12-05 06:02:00,-13.8,-20.7,29.82,NNE,14,2.0,5.0,70,0.00,,,0.00,0,WeatherCatV1.23B14,2013-12-05 13:02:00,
2013-12-05 06:07:00,-13.8,-20.2,29.82,NNE,14,3.0,3.0,72,0.00,,,0.00,0,WeatherCatV1.23B14,2013-12-05 13:07:00,
2013-12-05 06:12:00,-13.3,-19.4,29.82,NNE,14,1.0,2.0,73,0.00,,,0.00,0,WeatherCatV1.23B14,2013-12-05 13:12:00,
2013-12-05 06:17:00,-12.8,-18.7,29.82,NNE,14,1.0,2.0,74,0.00,,,0.00,0,WeatherCatV1.23B14,2013-12-05 13:17:00,
2013-12-05 06:22:00,-12.0,-17.9,29.82,NNE,14,2.0,3.0,74,0.00,,,0.00,0,WeatherCatV1.23B14,2013-12-05 13:22:00,
2013-12-05 06:27:00,-11.5,-17.2,29.82,NNE,14,3.0,4.0,75,0.00,,,0.00,0,WeatherCatV1.23B14,2013-12-05 13:27:00,
2013-12-05 06:32:00,-11.0,-16.9,29.82,NNE,14,2.0,3.0,74,0.00,,,0.00,0,WeatherCatV1.23B14,2013-12-05 13:32:00,
2013-12-05 06:37:00,-10.7,-16.6,29.82,NNE,14,2.0,5.0,74,0.00,,,0.00,0,WeatherCatV1.23B14,2013-12-05 13:37:00,
2013-12-05 06:42:00,-10.0,-15.7,29.82,NNE,14,2.0,3.0,75,0.00,,,0.00,0,WeatherCatV1.23B14,2013-12-05 13:42:00,
2013-12-05 06:47:00,-9.8,-15.8,29.82,NNE,14,2.0,3.0,74,0.00,,,0.00,0,WeatherCatV1.23B14,2013-12-05 13:47:00,
2013-12-05 06:52:00,-9.8,-15.8,29.82,NNE,14,2.0,2.0,74,0.00,,,0.00,0,WeatherCatV1.23B14,2013-12-05 13:52:00,
2013-12-05 06:57:00,-9.8,-15.8,29.82,NNE,14,1.0,3.0,74,0.00,,,0.00,0,WeatherCatV1.23B14,2013-12-05 13:57:00,
2013-12-05 07:02:00,-10.0,-16.2,29.82,NNE,14,0.0,0.0,73,0.00,,,0.00,0,WeatherCatV1.23B14,2013-12-05 14:02:00,
2013-12-05 07:07:00,-10.5,-17.0,29.82,NNE,14,0.0,0.0,72,0.00,,,0.00,0,WeatherCatV1.23B14,2013-12-05 14:07:00,
2013-12-05 07:12:00,-11.2,-17.9,29.82,NNE,14,1.0,3.0,71,0.00,,,0.00,5,WeatherCatV1.23B14,2013-12-05 14:12:00,
2013-12-05 07:17:00,-12.2,-19.5,29.82,NNE,14,0.0,2.0,69,0.00,,,0.00,7,WeatherCatV1.23B14,2013-12-05 14:17:00,
2013-12-05 07:22:00,-12.8,-19.8,29.82,NNE,14,1.0,1.0,70,0.00,,,0.00,9,WeatherCatV1.23B14,2013-12-05 14:22:00,
2013-12-05 07:27:00,-13.3,-20.5,29.82,NNE,14,0.0,3.0,69,0.00,,,0.00,11,WeatherCatV1.23B14,2013-12-05 14:27:00,
2013-12-05 07:32:00,-13.5,-20.7,29.82,NNE,14,0.0,1.0,69,0.00,,,0.00,14,WeatherCatV1.23B14,2013-12-05 14:32:00,
2013-12-05 07:37:00,-13.8,-21.3,29.82,NNE,14,0.0,0.0,68,0.00,,,0.00,16,WeatherCatV1.23B14,2013-12-05 14:37:00,
2013-12-05 07:42:00,-13.3,-20.8,29.82,NNE,14,0.0,0.0,68,0.00,,,0.00,72,WeatherCatV1.23B14,2013-12-05 14:42:00,
2013-12-05 07:47:00,-12.2,-18.9,29.82,WNW,288,2.0,5.0,71,0.00,,,0.00,86,WeatherCatV1.23B14,2013-12-05 14:47:00,
2013-12-05 07:52:00,-11.0,-17.2,29.82,WNW,288,0.0,1.0,73,0.00,,,0.00,100,WeatherCatV1.23B14,2013-12-05 14:52:00,
2013-12-05 07:57:00,-9.1,-14.8,29.82,WNW,288,0.0,0.0,75,0.00,,,0.00,118,WeatherCatV1.23B14,2013-12-05 14:57:00,
2013-12-05 08:02:00,-7.2,-13.3,29.82,WNW,288,0.0,0.0,74,0.00,,,0.00,135,WeatherCatV1.23B14,2013-12-05 15:02:00,
2013-12-05 08:07:00,-6.1,-12.5,29.82,WNW,288,0.0,0.0,73,0.00,,,0.00,158,WeatherCatV1.23B14,2013-12-05 15:07:00,
2013-12-05 08:12:00,-4.8,-11.5,29.82,WNW,288,0.0,0.0,72,0.00,,,0.00,171,WeatherCatV1.23B14,2013-12-05 15:12:00,
2013-12-05 08:17:00,-3.9,-10.9,29.82,WNW,288,0.0,0.0,71,0.00,,,0.00,183,WeatherCatV1.23B14,2013-12-05 15:17:00,
2013-12-05 08:22:00,-3.5,-10.5,29.82,WNW,288,0.0,0.0,71,0.00,,,0.00,199,WeatherCatV1.23B14,2013-12-05 15:22:00,
2013-12-05 08:27:00,-2.6,-10.5,29.82,WNW,288,0.0,0.0,68,0.00,,,0.00,213,WeatherCatV1.23B14,2013-12-05 15:27:00,
2013-12-05 08:32:00,-1.8,-9.7,29.82,WNW,288,0.0,0.0,68,0.00,,,0.00,230,WeatherCatV1.23B14,2013-12-05 15:32:00,
2013-12-05 08:37:00,-1.0,-8.7,29.82,WNW,288,0.0,0.0,69,0.00,,,0.00,246,WeatherCatV1.23B14,2013-12-05 15:37:00,
2013-12-05 08:42:00,0.1,-7.9,29.82,WNW,288,0.0,0.0,68,0.00,,,0.00,262,WeatherCatV1.23B14,2013-12-05 15:42:00,
2013-12-05 08:47:00,0.1,-9.1,29.82,WNW,288,0.0,0.0,64,0.00,,,0.00,276,WeatherCatV1.23B14,2013-12-05 15:47:00,
2013-12-05 08:52:00,0.0,-9.2,29.82,WNW,288,0.0,0.0,64,0.00,,,0.00,285,WeatherCatV1.23B14,2013-12-05 15:52:00,
2013-12-05 08:57:00,0.1,-8.8,29.82,WNW,288,0.0,0.0,65,0.00,,,0.00,299,WeatherCatV1.23B14,2013-12-05 15:57:00,
2013-12-05 09:02:00,0.5,-8.8,29.82,WNW,288,2.0,2.0,64,0.00,,,0.00,308,WeatherCatV1.23B14,2013-12-05 16:02:00,
2013-12-05 09:07:00,0.7,-8.6,29.82,WNW,288,2.0,2.0,64,0.00,,,0.00,318,WeatherCatV1.23B14,2013-12-05 16:07:00,
2013-12-05 09:12:00,0.7,-8.9,29.82,SW,222,1.0,3.0,63,0.00,,,0.00,324,WeatherCatV1.23B14,2013-12-05 16:12:00,
2013-12-05 09:17:00,1.3,-8.0,29.82,SW,222,3.0,3.0,64,0.00,,,0.00,333,WeatherCatV1.23B14,2013-12-05 16:17:00,
2013-12-05 09:22:00,1.8,-8.2,29.82,SW,222,1.0,3.0,62,0.00,,,0.00,343,WeatherCatV1.23B14,2013-12-05 16:22:00,
2013-12-05 09:27:00,1.7,-8.3,29.82,SSW,212,3.0,3.0,62,0.00,,,0.00,352,WeatherCatV1.23B14,2013-12-05 16:27:00,
2013-12-05 09:32:00,1.7,-8.3,29.82,SSW,212,0.0,3.0,62,0.00,,,0.00,364,WeatherCatV1.23B14,2013-12-05 16:32:00,
2013-12-05 09:37:00,2.0,-8.0,29.82,SSW,212,2.0,3.0,62,0.00,,,0.00,375,WeatherCatV1.23B14,2013-12-05 16:37:00,
2013-12-05 09:42:00,2.6,-7.1,29.82,SSW,212,2.0,2.0,63,0.00,,,0.00,384,WeatherCatV1.23B14,2013-12-05 16:42:00,
2013-12-05 09:47:00,3.5,-6.9,29.82,SSW,212,0.0,0.0,61,0.00,,,0.00,394,WeatherCatV1.23B14,2013-12-05 16:47:00,
2013-12-05 09:52:00,3.9,-7.2,29.82,SSW,212,0.0,0.0,59,0.00,,,0.00,403,WeatherCatV1.23B14,2013-12-05 16:52:00,
2013-12-05 09:57:00,4.7,-6.1,29.82,SSW,212,0.0,0.0,60,0.00,,,0.00,412,WeatherCatV1.23B14,2013-12-05 16:57:00,
2013-12-05 10:02:00,6.7,-5.3,29.82,SSW,212,0.0,1.0,57,0.00,,,0.00,422,WeatherCatV1.23B14,2013-12-05 17:02:00,
2013-12-05 10:07:00,6.9,-5.8,29.82,SSW,212,1.0,3.0,55,0.00,,,0.00,428,WeatherCatV1.23B14,2013-12-05 17:07:00,
2013-12-05 10:12:00,6.3,-6.0,29.82,South,186,6.0,6.0,56,0.00,,,0.00,436,WeatherCatV1.23B14,2013-12-05 17:12:00,
2013-12-05 10:17:00,5.8,-6.1,29.81,SSE,157,3.0,6.0,57,0.00,,,0.00,443,WeatherCatV1.23B14,2013-12-05 17:17:00,
2013-12-05 10:22:00,5.4,-6.1,29.81,SE,141,3.0,6.0,58,0.00,,,0.00,450,WeatherCatV1.23B14,2013-12-05 17:22:00,
2013-12-05 10:27:00,5.6,-5.9,29.81,SE,141,3.0,3.0,58,0.00,,,0.00,457,WeatherCatV1.23B14,2013-12-05 17:27:00,
2013-12-05 10:32:00,5.8,-5.8,29.80,SE,141,2.0,6.0,58,0.00,,,0.00,465,WeatherCatV1.23B14,2013-12-05 17:32:00,
2013-12-05 10:37:00,5.8,-5.8,29.80,SE,143,3.0,3.0,58,0.00,,,0.00,470,WeatherCatV1.23B14,2013-12-05 17:37:00,
2013-12-05 10:42:00,5.8,-5.8,29.80,SE,143,3.0,6.0,58,0.00,,,0.00,475,WeatherCatV1.23B14,2013-12-05 17:42:00,
2013-12-05 10:47:00,6.0,-5.6,29.80,SE,137,6.0,6.0,58,0.00,,,0.00,479,WeatherCatV1.23B14,2013-12-05 17:47:00,
2013-12-05 10:52:00,6.1,-5.5,29.80,SE,137,2.0,5.0,58,0.00,,,0.00,486,WeatherCatV1.23B14,2013-12-05 17:52:00,
2013-12-05 10:57:00,6.1,-5.5,29.80,SE,137,1.0,5.0,58,0.00,,,0.00,489,WeatherCatV1.23B14,2013-12-05 17:57:00,
2013-12-05 11:02:00,6.5,-5.4,29.79,SE,137,2.0,2.0,57,0.00,,,0.00,493,WeatherCatV1.23B14,2013-12-05 18:02:00,
2013-12-05 11:07:00,7.0,-5.0,29.79,SE,137,0.0,4.0,57,0.00,,,0.00,498,WeatherCatV1.23B14,2013-12-05 18:07:00,
2013-12-05 11:12:00,7.6,-4.4,29.79,SE,137,2.0,3.0,57,0.00,,,0.00,501,WeatherCatV1.23B14,2013-12-05 18:12:00,
2013-12-05 11:17:00,8.1,-4.3,29.79,SE,137,3.0,3.0,56,0.00,,,0.00,505,WeatherCatV1.23B14,2013-12-05 18:17:00,
2013-12-05 11:22:00,8.3,-4.1,29.79,SE,137,5.0,7.0,56,0.00,,,0.00,509,WeatherCatV1.23B14,2013-12-05 18:22:00,
2013-12-05 11:27:00,8.3,-4.1,29.79,SE,137,5.0,6.0,56,0.00,,,0.00,509,WeatherCatV1.23B14,2013-12-05 18:27:00,
2013-12-05 11:32:00,8.4,-3.7,29.77,SE,136,5.0,6.0,57,0.00,,,0.00,512,WeatherCatV1.23B14,2013-12-05 18:32:00,
2013-12-05 11:37:00,8.6,-3.5,29.77,SE,136,3.0,7.0,57,0.00,,,0.00,512,WeatherCatV1.23B14,2013-12-05 18:37:00,
2013-12-05 11:42:00,8.6,-3.8,29.77,SE,136,5.0,7.0,56,0.00,,,0.00,514,WeatherCatV1.23B14,2013-12-05 18:42:00,
2013-12-05 11:47:00,8.6,-3.8,29.77,SE,138,4.0,7.0,56,0.00,,,0.00,514,WeatherCatV1.23B14,2013-12-05 18:47:00,
2013-12-05 11:52:00,8.8,-3.7,29.77,SE,140,2.0,6.0,56,0.00,,,0.00,514,WeatherCatV1.23B14,2013-12-05 18:52:00,
2013-12-05 11:57:00,9.3,-3.2,29.77,SE,140,2.0,6.0,56,0.00,,,0.00,514,WeatherCatV1.23B14,2013-12-05 18:57:00,
2013-12-05 12:02:00,9.7,-2.8,29.76,SE,140,0.0,6.0,56,0.00,,,0.00,514,WeatherCatV1.23B14,2013-12-05 19:02:00,
2013-12-05 12:07:00,9.7,-2.8,29.76,SE,140,2.0,3.0,56,0.00,,,0.00,512,WeatherCatV1.23B14,2013-12-05 19:07:00,
2013-12-05 12:12:00,10.0,-2.9,29.76,SE,140,0.0,2.0,55,0.00,,,0.00,512,WeatherCatV1.23B14,2013-12-05 19:12:00,
2013-12-05 12:17:00,11.2,-1.4,29.75,SE,140,0.0,3.0,56,0.00,,,0.00,544,WeatherCatV1.23B14,2013-12-05 19:17:00,
2013-12-05 12:22:00,11.4,-2.0,29.75,SE,140,4.0,6.0,54,0.00,,,0.00,547,WeatherCatV1.23B14,2013-12-05 19:22:00,
2013-12-05 12:27:00,11.9,-1.5,29.75,SE,140,2.0,3.0,54,0.00,,,0.00,544,WeatherCatV1.23B14,2013-12-05 19:27:00,
2013-12-05 12:32:00,12.1,-1.7,29.74,SE,140,5.0,5.0,53,0.00,,,0.00,540,WeatherCatV1.23B14,2013-12-05 19:32:00,
2013-12-05 12:37:00,12.3,-1.1,29.74,SE,141,2.0,3.0,54,0.00,,,0.00,538,WeatherCatV1.23B14,2013-12-05 19:37:00,
2013-12-05 12:42:00,12.6,-1.6,29.74,SE,141,2.0,2.0,52,0.00,,,0.00,533,WeatherCatV1.23B14,2013-12-05 19:42:00,
2013-12-05 12:47:00,13.1,-1.2,29.74,SE,141,3.0,3.0,52,0.00,,,0.00,530,WeatherCatV1.23B14,2013-12-05 19:47:00,
2013-12-05 12:52:00,13.3,-1.0,29.74,SE,141,3.0,7.0,52,0.00,,,0.00,524,WeatherCatV1.23B14,2013-12-05 19:52:00,
2013-12-05 12:57:00,13.6,-0.7,29.74,SE,141,1.0,3.0,52,0.00,,,0.00,519,WeatherCatV1.23B14,2013-12-05 19:57:00,
2013-12-05 13:02:00,13.5,-0.8,29.74,SE,141,5.0,5.0,52,0.00,,,0.00,512,WeatherCatV1.23B14,2013-12-05 20:02:00,
2013-12-05 13:07:00,12.9,-1.4,29.74,SE,136,1.0,6.0,52,0.00,,,0.00,505,WeatherCatV1.23B14,2013-12-05 20:07:00,
2013-12-05 13:12:00,13.6,-0.7,29.74,SE,136,4.0,4.0,52,0.00,,,0.00,500,WeatherCatV1.23B14,2013-12-05 20:12:00,
2013-12-05 13:17:00,13.6,-1.1,29.74,SE,136,2.0,2.0,51,0.00,,,0.00,491,WeatherCatV1.23B14,2013-12-05 20:17:00,
2013-12-05 13:22:00,13.3,-1.4,29.74,SE,137,1.0,5.0,51,0.00,,,0.00,480,WeatherCatV1.23B14,2013-12-05 20:22:00,
2013-12-05 13:27:00,13.1,-0.8,29.74,SE,143,4.0,7.0,53,0.00,,,0.00,480,WeatherCatV1.23B14,2013-12-05 20:27:00,
2013-12-05 13:32:00,12.6,-0.9,29.73,SSE,150,4.0,6.0,54,0.00,,,0.00,468,WeatherCatV1.23B14,2013-12-05 20:32:00,
2013-12-05 13:37:00,12.3,-1.1,29.73,SE,140,3.0,6.0,54,0.00,,,0.00,456,WeatherCatV1.23B14,2013-12-05 20:37:00,
2013-12-05 13:42:00,12.6,-0.5,29.73,SE,140,2.0,4.0,55,0.00,,,0.00,443,WeatherCatV1.23B14,2013-12-05 20:42:00,
2013-12-05 13:47:00,12.8,-0.3,29.73,SE,138,3.0,3.0,55,0.00,,,0.00,436,WeatherCatV1.23B14,2013-12-05 20:47:00,
2013-12-05 13:52:00,13.5,-0.4,29.73,SE,140,1.0,5.0,53,0.00,,,0.00,394,WeatherCatV1.23B14,2013-12-05 20:52:00,
2013-12-05 13:57:00,14.1,-0.7,29.73,SSW,193,1.0,7.0,51,0.00,,,0.00,385,WeatherCatV1.23B14,2013-12-05 20:57:00,
2013-12-05 14:02:00,14.4,-0.8,29.73,SSW,192,1.0,1.0,50,0.00,,,0.00,377,WeatherCatV1.23B14,2013-12-05 21:02:00,
2013-12-05 14:07:00,14.4,-0.4,29.73,SSW,192,0.0,0.0,51,0.00,,,0.00,368,WeatherCatV1.23B14,2013-12-05 21:07:00,
2013-12-05 14:12:00,14.9,-0.3,29.73,SSW,192,0.0,0.0,50,0.00,,,0.00,357,WeatherCatV1.23B14,2013-12-05 21:12:00,
2013-12-05 14:17:00,15.4,-0.3,29.73,SSW,192,4.0,6.0,49,0.00,,,0.00,347,WeatherCatV1.23B14,2013-12-05 21:17:00,
2013-12-05 14:22:00,15.6,0.3,29.73,South,191,5.0,7.0,50,0.00,,,0.00,334,WeatherCatV1.23B14,2013-12-05 21:22:00,
2013-12-05 14:27:00,14.8,-0.4,29.73,SE,137,6.0,8.0,50,0.00,,,0.00,324,WeatherCatV1.23B14,2013-12-05 21:27:00,
2013-12-05 14:32:00,14.6,-0.2,29.73,SSW,199,3.0,7.0,51,0.00,,,0.00,311,WeatherCatV1.23B14,2013-12-05 21:32:00,
2013-12-05 14:37:00,14.3,0.3,29.73,South,169,7.0,8.0,53,0.00,,,0.00,301,WeatherCatV1.23B14,2013-12-05 21:37:00,
2013-12-05 14:42:00,14.0,0.1,29.73,SSE,158,5.0,6.0,53,0.00,,,0.00,287,WeatherCatV1.23B14,2013-12-05 21:42:00,
2013-12-05 14:47:00,14.0,0.5,29.73,South,176,5.0,7.0,54,0.00,,,0.00,274,WeatherCatV1.23B14,2013-12-05 21:47:00,
2013-12-05 14:52:00,13.5,0.0,29.73,SE,145,1.0,7.0,54,0.00,,,0.00,264,WeatherCatV1.23B14,2013-12-05 21:52:00,
2013-12-05 14:57:00,13.3,-0.2,29.73,SE,143,7.0,9.0,54,0.00,,,0.00,250,WeatherCatV1.23B14,2013-12-05 21:57:00,
2013-12-05 15:02:00,12.9,-1.4,29.73,South,185,7.0,10.0,52,0.00,,,0.00,236,WeatherCatV1.23B14,2013-12-05 22:02:00,
2013-12-05 15:07:00,14.4,-4.9,29.73,WSW,243,3.0,10.0,41,0.00,,,0.00,223,WeatherCatV1.23B14,2013-12-05 22:07:00,
2013-12-05 15:12:00,16.5,-6.9,29.73,SW,217,2.0,10.0,34,0.00,,,0.00,211,WeatherCatV1.23B14,2013-12-05 22:12:00,
2013-12-05 15:17:00,17.7,-7.1,29.73,West,268,4.0,16.0,32,0.00,,,0.00,199,WeatherCatV1.23B14,2013-12-05 22:17:00,
2013-12-05 15:22:00,18.1,-7.4,29.73,SW,234,10.0,12.0,31,0.00,,,0.00,185,WeatherCatV1.23B14,2013-12-05 22:22:00,
2013-12-05 15:27:00,18.1,-6.7,29.73,WSW,244,6.0,14.0,32,0.00,,,0.00,172,WeatherCatV1.23B14,2013-12-05 22:27:00,
2013-12-05 15:32:00,18.0,-6.8,29.73,WNW,288,7.0,16.0,32,0.00,,,0.00,121,WeatherCatV1.23B14,2013-12-05 22:32:00,
2013-12-05 15:37:00,16.7,-6.7,29.73,WNW,298,11.0,12.0,34,0.00,,,0.00,19,WeatherCatV1.23B14,2013-12-05 22:37:00,
2013-12-05 15:42:00,15.7,-7.0,29.73,WSW,239,6.0,12.0,35,0.00,,,0.00,19,WeatherCatV1.23B14,2013-12-05 22:42:00,
2013-12-05 15:47:00,15.2,-6.9,29.74,South,189,8.0,14.0,36,0.00,,,0.00,19,WeatherCatV1.23B14,2013-12-05 22:47:00,
2013-12-05 15:52:00,14.9,-6.6,29.74,WSW,254,6.0,11.0,37,0.00,,,0.00,18,WeatherCatV1.23B14,2013-12-05 22:52:00,
2013-12-05 15:57:00,14.6,-6.3,29.74,WSW,241,10.0,12.0,38,0.00,,,0.00,18,WeatherCatV1.23B14,2013-12-05 22:57:00,
2013-12-05 16:02:00,14.3,-6.6,29.74,WSW,250,7.0,10.0,38,0.00,,,0.00,16,WeatherCatV1.23B14,2013-12-05 23:02:00,
2013-12-05 16:07:00,14.3,-6.6,29.74,West,272,11.0,18.0,38,0.00,,,0.00,16,WeatherCatV1.23B14,2013-12-05 23:07:00,
2013-12-05 16:12:00,14.3,-6.6,29.74,WSW,248,18.0,19.0,38,0.00,,,0.00,14,WeatherCatV1.23B14,2013-12-05 23:12:00,
2013-12-05 16:17:00,14.1,-6.2,29.75,WNW,288,10.0,22.0,39,0.00,,,0.00,14,WeatherCatV1.23B14,2013-12-05 23:17:00,
2013-12-05 16:22:00,14.0,-5.8,29.75,SSW,210,10.0,16.0,40,0.00,,,0.00,12,WeatherCatV1.23B14,2013-12-05 23:22:00,
2013-12-05 16:27:00,13.8,-6.0,29.75,SSW,208,12.0,18.0,40,0.00,,,0.00,11,WeatherCatV1.23B14,2013-12-05 23:27:00,
2013-12-05 16:32:00,13.6,-6.2,29.75,WNW,282,19.0,26.0,40,0.00,,,0.00,9,WeatherCatV1.23B14,2013-12-05 23:32:00,
2013-12-05 16:37:00,13.5,-6.3,29.75,West,260,11.0,24.0,40,0.00,,,0.00,9,WeatherCatV1.23B14,2013-12-05 23:37:00,
2013-12-05 16:42:00,13.5,-6.3,29.75,WSW,257,8.0,20.0,40,0.00,,,0.00,7,WeatherCatV1.23B14,2013-12-05 23:42:00,
2013-12-05 16:47:00,13.3,-5.9,29.75,NW,305,18.0,21.0,41,0.00,,,0.00,5,WeatherCatV1.23B14,2013-12-05 23:47:00,
2013-12-05 16:52:00,13.1,-6.1,29.75,West,270,16.0,21.0,41,0.00,,,0.00,0,WeatherCatV1.23B14,2013-12-05 23:52:00,
2013-12-05 16:57:00,12.8,-5.9,29.75,West,268,16.0,21.0,42,0.00,,,0.00,0,WeatherCatV1.23B14,2013-12-05 23:57:00,
2013-12-05 17:02:00,12.6,-5.6,29.76,SW,223,8.0,17.0,43,0.00,,,0.00,0,WeatherCatV1.23B14,2013-12-06 00:02:00,
2013-12-05 17:07:00,12.4,-5.3,29.76,West,275,13.0,19.0,44,0.00,,,0.00,0,WeatherCatV1.23B14,2013-12-06 00:07:00,
2013-12-05 17:12:00,12.3,-5.4,29.76,West,270,11.0,13.0,44,0.00,,,0.00,0,WeatherCatV1.23B14,2013-12-06 00:12:00,
2013-12-05 17:17:00,12.1,-5.6,29.76,WSW,253,9.0,20.0,44,0.00,,,0.00,0,WeatherCatV1.23B14,2013-12-06 00:17:00,
2013-12-05 17:22:00,12.1,-5.6,29.76,West,277,9.0,22.0,44,0.00,,,0.00,0,WeatherCatV1.23B14,2013-12-06 00:22:00,
2013-12-05 17:27:00,12.1,-5.1,29.76,West,261,11.0,22.0,45,0.00,,,0.00,0,WeatherCatV1.23B14,2013-12-06 00:27:00,
2013-12-05 17:32:00,12.1,-5.1,29.76,West,263,9.0,25.0,45,0.00,,,0.00,0,WeatherCatV1.23B14,2013-12-06 00:32:00,
2013-12-05 17:37:00,12.1,-4.7,29.76,West,263,17.0,19.0,46,0.00,,,0.00,0,WeatherCatV1.23B14,2013-12-06 00:37:00,
2013-12-05 17:42:00,12.1,-4.7,29.76,NW,320,8.0,21.0,46,0.00,,,0.00,0,WeatherCatV1.23B14,2013-12-06 00:42:00,
2013-12-05 17:47:00,11.9,-4.4,29.76,WSW,257,7.0,9.0,47,0.00,,,0.00,0,WeatherCatV1.23B14,2013-12-06 00:47:00,
2013-12-05 17:52:00,11.9,-4.4,29.76,WNW,287,14.0,14.0,47,0.00,,,0.00,0,WeatherCatV1.23B14,2013-12-06 00:52:00,
2013-12-05 17:57:00,11.9,-4.4,29.76,NW,311,6.0,7.0,47,0.00,,,0.00,0,WeatherCatV1.23B14,2013-12-06 00:57:00,
2013-12-05 18:02:00,11.6,-4.7,29.76,WSW,250,6.0,12.0,47,0.00,,,0.00,0,WeatherCatV1.23B14,2013-12-06 01:02:00,
2013-12-05 18:07:00,11.6,-4.7,29.76,WNW,292,6.0,8.0,47,0.00,,,0.00,0,WeatherCatV1.23B14,2013-12-06 01:07:00,
2013-12-05 18:12:00,11.4,-4.4,29.76,West,281,3.0,16.0,48,0.00,,,0.00,0,WeatherCatV1.23B14,2013-12-06 01:12:00,
2013-12-05 18:17:00,11.6,-4.2,29.76,NW,316,6.0,8.0,48,0.00,,,0.00,0,WeatherCatV1.23B14,2013-12-06 01:17:00,
2013-12-05 18:22:00,11.2,-4.6,29.76,NNW,343,2.0,2.0,48,0.00,,,0.00,0,WeatherCatV1.23B14,2013-12-06 01:22:00,
2013-12-05 18:27:00,10.9,-4.5,29.76,WSW,256,2.0,7.0,49,0.00,,,0.00,0,WeatherCatV1.23B14,2013-12-06 01:27:00,
2013-12-05 18:32:00,11.1,-4.3,29.77,WSW,243,4.0,13.0,49,0.00,,,0.00,0,WeatherCatV1.23B14,2013-12-06 01:32:00,
2013-12-05 18:37:00,11.1,-4.3,29.77,WSW,250,3.0,10.0,49,0.00,,,0.00,0,WeatherCatV1.23B14,2013-12-06 01:37:00,
2013-12-05 18:42:00,11.1,-4.3,29.77,WSW,253,3.0,13.0,49,0.00,,,0.00,0,WeatherCatV1.23B14,2013-12-06 01:42:00,
2013-12-05 18:47:00,11.4,-4.4,29.77,WSW,251,3.0,13.0,48,0.00,,,0.00,0,WeatherCatV1.23B14,2013-12-06 01:47:00,
2013-12-05 18:52:00,11.4,-4.0,29.77,SW,236,6.0,11.0,49,0.00,,,0.00,0,WeatherCatV1.23B14,2013-12-06 01:52:00,
2013-12-05 18:57:00,11.4,-4.0,29.77,SSW,208,1.0,6.0,49,0.00,,,0.00,0,WeatherCatV1.23B14,2013-12-06 01:57:00,
2013-12-05 19:02:00,11.7,-3.7,29.77,SW,227,1.0,6.0,49,0.00,,,0.00,0,WeatherCatV1.23B14,2013-12-06 02:02:00,
2013-12-05 19:07:00,10.4,-4.1,29.77,East,88,3.0,6.0,51,0.00,,,0.00,0,WeatherCatV1.23B14,2013-12-06 02:07:00,
2013-12-05 19:12:00,8.8,-4.0,29.77,East,88,1.0,3.0,55,0.00,,,0.00,0,WeatherCatV1.23B14,2013-12-06 02:12:00,
2013-12-05 19:17:00,7.6,-4.1,29.77,East,88,2.0,2.0,58,0.00,,,0.00,0,WeatherCatV1.23B14,2013-12-06 02:17:00,
2013-12-05 19:22:00,6.1,-4.8,29.77,East,88,3.0,4.0,60,0.00,,,0.00,0,WeatherCatV1.23B14,2013-12-06 02:22:00,
2013-12-05 19:27:00,5.4,-4.4,29.77,East,88,0.0,0.0,63,0.00,,,0.00,0,WeatherCatV1.23B14,2013-12-06 02:27:00,
2013-12-05 19:32:00,4.8,-4.7,29.78,East,88,2.0,2.0,64,0.00,,,0.00,0,WeatherCatV1.23B14,2013-12-06 02:32:00,
2013-12-05 19:37:00,4.1,-5.0,29.78,East,88,0.0,3.0,65,0.00,,,0.00,0,WeatherCatV1.23B14,2013-12-06 02:37:00,
2013-12-05 19:42:00,3.5,-4.7,29.78,East,88,0.0,0.0,68,0.00,,,0.00,0,WeatherCatV1.23B14,2013-12-06 02:42:00,
2013-12-05 19:47:00,3.0,-4.8,29.78,East,93,6.0,6.0,69,0.00,,,0.00,0,WeatherCatV1.23B14,2013-12-06 02:47:00,
2013-12-05 19:52:00,2.2,-5.0,29.78,East,93,0.0,2.0,71,0.00,,,0.00,0,WeatherCatV1.23B14,2013-12-06 02:52:00,
2013-12-05 19:57:00,1.7,-5.2,29.78,East,93,0.0,0.0,72,0.00,,,0.00,0,WeatherCatV1.23B14,2013-12-06 02:57:00,
2013-12-05 20:02:00,1.3,-5.3,29.79,East,93,1.0,2.0,73,0.00,,,0.00,0,WeatherCatV1.23B14,2013-12-06 03:02:00,
2013-12-05 20:07:00,0.5,-5.8,29.79,East,93,1.0,3.0,74,0.00,,,0.00,0,WeatherCatV1.23B14,2013-12-06 03:07:00,
2013-12-05 20:12:00,0.1,-5.6,29.79,East,93,2.0,5.0,76,0.00,,,0.00,0,WeatherCatV1.23B14,2013-12-06 03:12:00,
2013-12-05 20:17:00,0.0,-5.5,29.79,ESE,112,5.0,6.0,77,0.00,,,0.00,0,WeatherCatV1.23B14,2013-12-06 03:17:00,
2013-12-05 20:22:00,-0.2,-5.4,29.79,ESE,112,4.0,7.0,78,0.00,,,0.00,0,WeatherCatV1.23B14,2013-12-06 03:22:00,
2013-12-05 20:27:00,-0.4,-5.3,29.79,ESE,112,1.0,3.0,79,0.00,,,0.00,0,WeatherCatV1.23B14,2013-12-06 03:27:00,
2013-12-05 20:32:00,-0.6,-5.5,29.80,ESE,112,1.0,1.0,79,0.00,,,0.00,0,WeatherCatV1.23B14,2013-12-06 03:32:00,
2013-12-05 20:37:00,-1.0,-5.9,29.80,ESE,112,0.0,0.0,79,0.00,,,0.00,0,WeatherCatV1.23B14,2013-12-06 03:37:00,
2013-12-05 20:42:00,-1.2,-6.1,29.80,ESE,112,0.0,0.0,79,0.00,,,0.00,0,WeatherCatV1.23B14,2013-12-06 03:42:00,
2013-12-05 20:47:00,-1.4,-6.6,29.79,ESE,112,0.0,0.0,78,0.00,,,0.00,0,WeatherCatV1.23B14,2013-12-06 03:47:00,
2013-12-05 20:52:00,-2.0,-7.4,29.79,ESE,112,0.0,0.0,77,0.00,,,0.00,0,WeatherCatV1.23B14,2013-12-06 03:52:00,
2013-12-05 20:57:00,-2.4,-7.8,29.79,ESE,112,0.0,2.0,77,0.00,,,0.00,0,WeatherCatV1.23B14,2013-12-06 03:57:00,
2013-12-05 21:02:00,-2.8,-8.4,29.80,ESE,112,1.0,2.0,76,0.00,,,0.00,0,WeatherCatV1.23B14,2013-12-06 04:02:00,
2013-12-05 21:07:00,-2.8,-7.7,29.80,ESE,112,2.0,3.0,79,0.00,,,0.00,0,WeatherCatV1.23B14,2013-12-06 04:07:00,
2013-12-05 21:12:00,-2.6,-7.2,29.80,ESE,112,2.0,6.0,80,0.00,,,0.00,0,WeatherCatV1.23B14,2013-12-06 04:12:00,
2013-12-05 21:17:00,-2.4,-7.0,29.80,ESE,112,1.0,4.0,80,0.00,,,0.00,0,WeatherCatV1.23B14,2013-12-06 04:17:00,
2013-12-05 21:22:00,-2.6,-7.5,29.80,ESE,112,0.0,0.0,79,0.00,,,0.00,0,WeatherCatV1.23B14,2013-12-06 04:22:00,
2013-12-05 21:27:00,-2.8,-7.7,29.80,ESE,112,0.0,0.0,79,0.00,,,0.00,0,WeatherCatV1.23B14,2013-12-06 04:27:00,
2013-12-05 21:32:00,-3.3,-8.4,29.80,ESE,112,0.0,0.0,78,0.00,,,0.00,0,WeatherCatV1.23B14,2013-12-06 04:32:00,
2013-12-05 21:37:00,-3.5,-8.6,29.80,ESE,112,0.0,0.0,78,0.00,,,0.00,0,WeatherCatV1.23B14,2013-12-06 04:37:00,
2013-12-05 21:42:00,-3.7,-9.1,29.80,ESE,112,0.0,2.0,77,0.00,,,0.00,0,WeatherCatV1.23B14,2013-12-06 04:42:00,
2013-12-05 21:47:00,-4.1,-9.7,29.81,ESE,112,0.0,0.0,76,0.00,,,0.00,0,WeatherCatV1.23B14,2013-12-06 04:47:00,
2013-12-05 21:52:00,-4.3,-9.6,29.81,ESE,112,1.0,2.0,77,0.00,,,0.00,0,WeatherCatV1.23B14,2013-12-06 04:52:00,
2013-12-05 21:57:00,-4.8,-10.1,29.81,ESE,112,1.0,2.0,77,0.00,,,0.00,0,WeatherCatV1.23B14,2013-12-06 04:57:00,
2013-12-05 22:01:00,-5.0,-10.6,29.81,ESE,112,1.0,2.0,76,0.00,,,0.00,0,WeatherCatV1.23B14,2013-12-06 05:01:00,
2013-12-05 22:02:00,-5.0,-10.6,29.81,ESE,112,0.0,3.0,76,0.00,,,0.00,0,WeatherCatV1.23B14,2013-12-06 05:02:00,
2013-12-05 22:03:00,-5.0,-10.6,29.81,ESE,112,0.0,3.0,76,0.00,,,0.00,0,WeatherCatV1.23B14,2013-12-06 05:03:00,
2013-12-05 22:05:00,-5.2,-10.8,29.81,ESE,112,1.0,3.0,76,0.00,,,0.00,0,WeatherCatV1.23B14,2013-12-06 05:05:00,
2013-12-05 22:08:00,-5.2,-10.5,29.81,ESE,112,0.0,0.0,77,0.00,,,0.00,0,WeatherCatV1.23B14,2013-12-06 05:08:00,
2013-12-05 22:10:00,-5.2,-10.8,29.81,ESE,112,1.0,3.0,76,0.00,,,0.00,0,WeatherCatV1.23B14,2013-12-06 05:10:00,
2013-12-05 22:15:00,-5.0,-10.1,29.82,ESE,112,0.0,3.0,78,0.00,,,0.00,0,WeatherCatV1.23B14,2013-12-06 05:15:00,
2013-12-05 22:20:00,-5.0,-10.1,29.82,ESE,112,0.0,3.0,78,0.00,,,0.00,0,WeatherCatV1.23B14,2013-12-06 05:20:00,
2013-12-05 22:25:00,-5.0,-10.1,29.82,ESE,112,0.0,3.0,78,0.00,,,0.00,0,WeatherCatV1.23B14,2013-12-06 05:25:00,
2013-12-05 22:30:00,-5.2,-10.5,29.82,ESE,112,0.0,2.0,77,0.00,,,0.00,0,WeatherCatV1.23B14,2013-12-06 05:30:00,
2013-12-05 22:35:00,-5.2,-10.5,29.82,ESE,112,0.0,2.0,77,0.00,,,0.00,0,WeatherCatV1.23B14,2013-12-06 05:35:00,
2013-12-05 22:40:00,-5.2,-10.5,29.82,ESE,112,0.0,2.0,77,0.00,,,0.00,0,WeatherCatV1.23B14,2013-12-06 05:40:00,
2013-12-05 22:45:00,-5.9,-11.7,29.82,ESE,112,0.0,3.0,75,0.00,,,0.00,0,WeatherCatV1.23B14,2013-12-06 05:45:00,
2013-12-05 22:50:00,-5.9,-11.7,29.82,ESE,112,0.0,3.0,75,0.00,,,0.00,0,WeatherCatV1.23B14,2013-12-06 05:50:00,
2013-12-05 22:55:00,-5.9,-11.7,29.82,ESE,112,0.0,3.0,75,0.00,,,0.00,0,WeatherCatV1.23B14,2013-12-06 05:55:00,
2013-12-05 23:00:00,-5.9,-11.7,29.82,ESE,112,0.0,3.0,75,0.00,,,0.00,0,WeatherCatV1.23B14,2013-12-06 06:00:00,
2013-12-05 23:05:00,-6.3,-12.4,29.81,ESE,112,1.0,3.0,74,0.00,,,0.00,0,WeatherCatV1.23B14,2013-12-06 06:05:00,
2013-12-05 23:10:00,-6.3,-12.4,29.81,ESE,112,1.0,3.0,74,0.00,,,0.00,0,WeatherCatV1.23B14,2013-12-06 06:10:00,
2013-12-05 23:15:00,-6.3,-12.4,29.81,ESE,112,1.0,3.0,74,0.00,,,0.00,0,WeatherCatV1.23B14,2013-12-06 06:15:00,
2013-12-05 23:20:00,-5.4,-11.0,29.81,ESE,112,1.0,5.0,76,0.00,,,0.00,0,WeatherCatV1.23B14,2013-12-06 06:20:00,
2013-12-05 23:25:00,-5.4,-11.0,29.81,ESE,112,1.0,5.0,76,0.00,,,0.00,0,WeatherCatV1.23B14,2013-12-06 06:25:00,
2013-12-05 23:30:00,-5.4,-11.0,29.81,ESE,112,1.0,5.0,76,0.00,,,0.00,0,WeatherCatV1.23B14,2013-12-06 06:30:00,
2013-12-05 23:35:00,-5.0,-10.3,29.81,ESE,112,1.0,5.0,77,0.00,,,0.00,0,WeatherCatV1.23B14,2013-12-06 06:35:00,
2013-12-05 23:40:00,-5.0,-10.3,29.81,ESE,112,1.0,5.0,77,0.00,,,0.00,0,WeatherCatV1.23B14,2013-12-06 06:40:00,
2013-12-05 23:45:00,-5.0,-10.3,29.81,ESE,112,1.0,5.0,77,0.00,,,0.00,0,WeatherCatV1.23B14,2013-12-06 06:45:00,
2013-12-05 23:50:00,-4.8,-10.1,29.81,ESE,112,2.0,5.0,77,0.00,,,0.00,0,WeatherCatV1.23B14,2013-12-06 06:50:00,
2013-12-05 23:55:00,-4.8,-10.1,29.81,ESE,112,2.0,5.0,77,0.00,,,0.00,0,WeatherCatV1.23B14,2013-12-06 06:55:00,